Regional Weather Roundup
Issued by NWS Boston, MA

Home | Current Version | Previous Version | Text Only | Print | Product List | Glossary On
Versions: 1 2 3 4 5 6 7 8 9 10 11 12 13 14 15 16 17 18 19 20 21 22 23 24 25 26 27 28
000
ASUS41 KBOX 260010
RWRBOX

REGIONAL WEATHER ROUNDUP
NATIONAL WEATHER SERVICE TAUNTON MA
800 PM EDT SAT OCT 25 2014

NOTE:  "FAIR" INDICATES FEW OR NO CLOUDS BELOW 12,000 FEET WITH NO
SIGNIFICANT WEATHER AND/OR OBSTRUCTIONS TO VISIBILITY.  THE FOLLOWING
OBSERVATION LOCATIONS DO NOT REPORT PRESENT WEATHER...PROVINCETOWN...
SMITHFIELD...BLOCK ISLAND...KEENE...AND OXFORD.

MAZALL-260100-
EASTERN MASSACHUSETTS

CITY           SKY/WX    TMP DP  RH WIND       PRES   REMARKS
BOSTON         MOCLDY    60  44  55 W12       29.58F
6HR MIN TEMP:  60; 6HR MAX TEMP:  64;

BEVERLY        CLEAR     52  42  69 SW5       29.57F
LAWRENCE       MOCLDY    55  45  68 SW6       29.59S
BEDFORD        MOCLDY    52  45  77 CALM      29.57F
BLUE HILL        N/A     54  43  66 W12       29.58F
NORWOOD        PTCLDY    48  44  86 CALM      29.58F
MARSHFIELD     NOT AVBL
PLYMOUTH       CLEAR     53  45  74 SW7       29.60F
TAUNTON        CLEAR     55  44  66 SW5       29.60F
NEW BEDFORD    CLEAR     54  46  74 SW6       29.60F
$$

MAZALL-260100-
CAPE COD AND THE ISLANDS

CITY           SKY/WX    TMP DP  RH WIND       PRES   REMARKS
FALMOUTH       CLEAR     55  48  76 W12       29.61F
HYANNIS        CLEAR     54  49  83 SW7       29.60F
CHATHAM        CLEAR     56  50  80 SW7       29.62S
PROVINCETOWN   PTCLDY    54   0  11 SW12      29.60F
NANTUCKET      CLEAR     57  48  72 W13       29.63S
MARTHAS VNYRD  CLEAR     55  48  77 W8        29.62F
$$

MAZALL-260100-
CENTRAL AND WESTERN MASSACHUSETTS

CITY           SKY/WX    TMP DP  RH WIND       PRES   REMARKS
WORCESTER      PTCLDY    49  43  80 SW8       29.59F
6HR MIN TEMP:  49; 6HR MAX TEMP:  60;

FITCHBURG      CLOUDY    53  45  74 CALM      29.59F
ORANGE         CLOUDY    49  47  93 S3        29.57F
SPRINGFIELD    CLOUDY    55  46  71 S9        29.57F
WESTFIELD      MOCLDY    54  44  69 S6        29.57F
NORTH ADAMS    MOCLDY    52  44  74 VRB7      29.55F
PITTSFIELD     MOCLDY    52  41  66 CALM      29.55F
$$

RIZALL-260100-
RHODE ISLAND

CITY           SKY/WX    TMP DP  RH WIND       PRES   REMARKS
PROVIDENCE     MOCLDY    56  45  66 SW5       29.62S
6HR MIN TEMP:  54; 6HR MAX TEMP:  66;

NEWPORT        CLEAR     58  47  66 VRB3      29.62S
BLOCK ISLAND   CLEAR     61  45  55 W14       29.63S
SMITHFIELD     PTCLDY    52  37  58 SW5       29.60S
WESTERLY       CLEAR     59  49  69 SW7       29.63S
$$

CTZALL-260100-
CONNECTICUT

CITY           SKY/WX    TMP DP  RH WIND       PRES   REMARKS
BRADLEY INTL   CLOUDY    60  42  51 S7        29.58F
6HR MIN TEMP:  60; 6HR MAX TEMP:  68;

HARTFORD       CLOUDY    57  45  64 S6        29.60F
BRIDGEPORT     PTCLDY    63  51  65 SW10      29.62F
DANBURY        PTCLDY    52  43  71 SW3       29.62F
GROTON         MOCLDY    59  48  67 SW13      29.62S
NEW HAVEN      PTCLDY    62  50  64 SW7       29.61F
CHESTER        NOT AVBL
MERIDEN        CLOUDY    54  45  71 S6        29.61F
WILLIMANTIC    CLOUDY    53  44  71 CALM      29.61F
OXFORD         MOCLDY    55  41  58 CALM      29.61F
$$

MEZ002-015-021-024-NHZ003-005-008-011-012-014-VTZ005-008-260100-
NORTHERN NEW ENGLAND

CITY           SKY/WX    TMP DP  RH WIND       PRES   REMARKS
PORTLAND ME    MOCLDY    51  48  89 CALM      29.54F
6HR MIN TEMP:  50; 6HR MAX TEMP:  66;

BANGOR ME      MOCLDY    47  42  83 SE5       29.53F
CONCORD NH     CLOUDY    54  43  66 S3        29.55F
MANCHESTER NH  CLOUDY    58  43  57 SW5       29.55F
NASHUA NH      CLOUDY    58  44  59 CALM      29.58S
PORTSMOUTH NH  MOCLDY    55  42  60 W2        29.54S
JAFFREY NH     MOCLDY    48  45  89 S3        29.58F
KEENE NH       MOCLDY    50  39  66 S3        29.56F
BURLINGTON VT  LGT RAIN  52  48  86 SE8       29.48F
MT. WASHINGTON SNOWSHWR  30  30 100 NW29        N/A  VSB 1/16WCI  15
$$

NYZ052-076-260100-
EASTERN NEW YORK

CITY           SKY/WX    TMP DP  RH WIND       PRES   REMARKS
ALBANY         LGT RAIN  58  45  62 S5        29.54S
6HR MIN TEMP:  58; 6HR MAX TEMP:  62; 6HR PCP: TRACE;

NEW YORK CITY  MOCLDY    64  43  46 SW8       29.64S
6HR MIN TEMP:  64; 6HR MAX TEMP:  68;

$$

ANZALL-260100-
MARINE OBSERVATIONS

STATION/POSITION TIME  TEMP    WIND        PRES    VSBY  WAVE
                       AIR SEA DIR/SP/G                  HT/PER
                 (UTC) (F)     (DEG/KT/KT) (MB)    (MI)  (FT/S)
BOSTON BUOY      NOT AVBL
BUZZARDS BAY     NOT AVBL
NANTUCKET SOUND  NOT AVBL
MASS BAY-STELLWA NOT AVBL
ISLE OF SHOALS   NOT AVBL
S OF BLOCK IS    NOT AVBL
$$

......................KEY.........................
  SKY/WX - SKY CONDITION/PRESENT WEATHER
  TMP    - TEMPERATURE IN FAHRENHEIT
  DWPT   - DEWPOINT IN FAHRENHEIT
  RH     - RELATIVE HUMIDITY IN PERCENT
  WIND   - DIRECTION AND SPEED IN MPH
  PRES   - MEAN SEA LEVEL PRESSURE IN INCHES OF HG
  WCI    - WIND CHILL INDEX
  VSB    - VISIBILITY IN MILES
  HX     - HEAT INDEX
  TC     - TEMPERATURE IN CELSIUS
  VRB    - VARIABLE WIND DIRECTION
  N/A    - NOT AVAILABLE



USA.gov is the U.S. government's official web portal to all federal, state and local government web resources and services.